QPF
0.12 0.10 0.09 0.10 0.11 0.10 0.11 0.10 0.09 0.07 0.06 0.06 0.05 0.05 0.05 0.05 0.06 0.09 0.09 0.06 0.02 0.02 0.03 0.04 0.05 0.06 0.06 0.07 0.07 0.06 0.06 0.06 0.06 0.06 0.04 0.03 0.03 0.02 0.02 0.03 0.02 0.01 0.02
0.08 0.07 0.07 0.08 0.07 0.07 0.08 0.08 0.07 0.08 0.08 0.09 0.08 0.08 0.07 0.03 0.04 0.05 0.07 0.08 0.03 0.02 0.02 0.03 0.06 0.08 0.08 0.10 0.09 0.08 0.08 0.08 0.08 0.06 0.05 0.04 0.02 0.02 0.02 0.02 0.02 0.02 0.02
0.06 0.06 0.06 0.07 0.05 0.04 0.04 0.05 0.06 0.07 0.07 0.07 0.06 0.06 0.09 0.08 0.09 0.06 0.07 0.10 0.09 0.05 0.02 0.02 0.04 0.06 0.07 0.11 0.13 0.13 0.13 0.10 0.09 0.08 0.06 0.05 0.03 0.02 0.02 0.03 0.03 0.02 0.01
0.02 0.03 0.04 0.05 0.04 0.03 0.04 0.05 0.05 0.05 0.06 0.06 0.06 0.05 0.07 0.09 0.07 0.05 0.05 0.07 0.09 0.07 0.05 0.03 0.03 0.05 0.08 0.11 0.12 0.14 0.18 0.13 0.09 0.07 0.07 0.06 0.04 0.03 0.02 0.02 0.03 0.02 0.01
0.01 0.02 0.03 0.03 0.02 0.03 0.03 0.03 0.04 0.05 0.04 0.05 0.04 0.04 0.04 0.04 0.04 0.03 0.02 0.03 0.04 0.06 0.07 0.06 0.04 0.04 0.08 0.11 0.13 0.16 0.20 0.19 0.15 0.12 0.09 0.08 0.06 0.05 0.04 0.03 0.02 0.02 0.02
0.01 0.01 0.01 0.01 0.02 0.02 0.03 0.04 0.03 0.02 0.02 0.01 0.01 0.02 0.02 0.02 0.02 0.02 0.02 0.02 0.02 0.03 0.04 0.06 0.08 0.05 0.07 0.09 0.12 0.13 0.18 0.19 0.19 0.16 0.14 0.10 0.09 0.08 0.06 0.03 0.02 0.02 0.02
0.01 0.01 0.01 0.01 0.01 0.01 0.02 0.01 0.01 0.01 0.00 0.00 0.00 0.01 0.01 0.01 0.01 0.01 0.01 0.02 0.03 0.03 0.04 0.06 0.08 0.11 0.13 0.07 0.06 0.07 0.11 0.15 0.17 0.17 0.17 0.14 0.13 0.10 0.07 0.04 0.02 0.01 0.01
0.01 0.00 0.00 0.00 0.01 0.01 0.01 0.00 0.00 0.01 0.01 0.00 0.01 0.01 0.01 0.01 0.01 0.00 0.01 0.01 0.01 0.02 0.03 0.03 0.05 0.06 0.07 0.12 0.07 0.05 0.08 0.11 0.12 0.13 0.16 0.16 0.14 0.11 0.10 0.07 0.05 0.03 0.03
0.00 0.00 0.00 0.00 0.00 0.00 0.01 0.00 0.00 0.01 0.01 0.01 0.01 0.01 0.01 0.02 0.02 0.01 0.00 0.00 0.00 0.01 0.01 0.01 0.02 0.03 0.05 0.08 0.12 0.08 0.06 0.05 0.07 0.10 0.14 0.13 0.11 0.08 0.07 0.08 0.08 0.08 0.06
0.00 0.00 0.01 0.01 0.00 0.00 0.00 0.00 0.00 0.00 0.00 0.01 0.01 0.01 0.01 0.01 0.01 0.01 0.01 0.00 0.01 0.01 0.01 0.01 0.01 0.02 0.03 0.04 0.07 0.05 0.02 0.01 0.02 0.05 0.09 0.10 0.10 0.07 0.06 0.08 0.11 0.11 0.09
0.01 0.00 0.00 0.01 0.01 0.00 0.00 0.00 0.00 0.00 0.00 0.00 0.00 0.00 0.00 0.00 0.00 0.00 0.01 0.00 0.00 0.00 0.00 0.00 0.00 0.00 0.01 0.02 0.04 0.02 0.01 0.01 0.01 0.02 0.04 0.05 0.07 0.07 0.08 0.08 0.10 0.12 0.13
0.01 0.00 0.01 0.01 0.01 0.01 0.00 0.01 0.01 0.00 0.00 0.00 0.00 0.00 0.00 0.00 0.00 0.00 0.00 0.00 0.00 0.00 0.00 0.00 0.00 0.00 0.00 0.00 0.00 0.01 0.01 0.01 0.01 0.01 0.01 0.02 0.04 0.06 0.09 0.11 0.12 0.13 0.14
0.01 0.01 0.01 0.01 0.01 0.01 0.01 0.01 0.01 0.01 0.01 0.01 0.00 0.00 0.00 0.00 0.00 0.00 0.00 0.00 0.00 0.00 0.00 0.00 0.00 0.00 0.00 0.00 0.00 0.00 0.00 0.00 0.00 0.00 0.00 0.00 0.01 0.02 0.03 0.05 0.09 0.13 0.15
0.00 0.01 0.00 0.01 0.01 0.00 0.00 0.01 0.01 0.00 0.00 0.00 0.00 0.00 0.00 0.00 0.00 0.00 0.00 0.00 0.00 0.00 0.00 0.00 0.00 0.00 0.00 0.00 0.00 0.00 0.00 0.00 0.00 0.00 0.00 0.00 0.01 0.01 0.01 0.02 0.04 0.05 0.07
0.00 0.00 0.00 0.01 0.00 0.00 0.00 0.01 0.00 0.00 0.00 0.00 0.00 0.00 0.01 0.00 0.00 0.00 0.00 0.00 0.00 0.00 0.01 0.01 0.00 0.00 0.00 0.00 0.00 0.00 0.00 0.00 0.00 0.00 0.00 0.00 0.00 0.01 0.01 0.01 0.01 0.02 0.03
0.00 0.00 0.00 0.00 0.00 0.00 0.00 0.00 0.00 0.00 0.00 0.00 0.00 0.00 0.00 0.00 0.00 0.00 0.00 0.00 0.00 0.00 0.01 0.00 0.00 0.00 0.00 0.00 0.00 0.00 0.00 0.00 0.00 0.00 0.00 0.00 0.00 0.00 0.01 0.01 0.01 0.01 0.01
0.00 0.00 0.00 0.00 0.00 0.00 0.00 0.00 0.00 0.00 0.00 0.00 0.00 0.00 0.00 0.00 0.00 0.00 0.00 0.00 0.00 0.00 0.00 0.00 0.00 0.00 0.00 0.00 0.00 0.00 0.00 0.00 0.00 0.00 0.00 0.00 0.00 0.00 0.00 0.00 0.00 0.00 0.00
0.00 0.00 0.00 0.00 0.00 0.00 0.00 0.00 0.00 0.00 0.00 0.00 0.00 0.00 0.00 0.00 0.01 0.01 0.00 0.00 0.01 0.01 0.00 0.00 0.00 0.00 0.00 0.00 0.00 0.00 0.00 0.00 0.00 0.00 0.00 0.00 0.00 0.00 0.00 0.00 0.00 0.00 0.00
0.01 0.01 0.00 0.00 0.00 0.00 0.00 0.00 0.00 0.00 0.00 0.00 0.00 0.00 0.00 0.00 0.00 0.01 0.01 0.01 0.01 0.00 0.00 0.00 0.00 0.00 0.00 0.00 0.00 0.00 0.00 0.00 0.00 0.00 0.00 0.00 0.00 0.00 0.00 0.00 0.00 0.00 0.00
0.02 0.02 0.01 0.00 0.00 0.00 0.00 0.00 0.00 0.00 0.00 0.00 0.00 0.00 0.00 0.00 0.00 0.00 0.01 0.01 0.00 0.00 0.00 0.00 0.00 0.00 0.00 0.00 0.00 0.00 0.00 0.00 0.00 0.00 0.00 0.00 0.00 0.00 0.00 0.00 0.00 0.00 0.00
0.03 0.03 0.02 0.01 0.00 0.00 0.00 0.00 0.00 0.00 0.00 0.00 0.00 0.00 0.00 0.00 0.00 0.00 0.00 0.00 0.00 0.00 0.00 0.00 0.00 0.00 0.00 0.00 0.01 0.00 0.00 0.00 0.00 0.00 0.00 0.00 0.00 0.00 0.00 0.00 0.00 0.00 0.00
0.05 0.03 0.03 0.03 0.02 0.01 0.00 0.00 0.00 0.00 0.00 0.00 0.00 0.00 0.00 0.00 0.00 0.00 0.00 0.00 0.00 0.00 0.00 0.00 0.00 0.00 0.00 0.00 0.01 0.00 0.00 0.01 0.01 0.00 0.01 0.00 0.00 0.00 0.00 0.00 0.00 0.00 0.00
0.04 0.04 0.05 0.05 0.03 0.02 0.00 0.00 0.00 0.00 0.00 0.00 0.00 0.00 0.00 0.00 0.00 0.00 0.00 0.00 0.00 0.00 0.00 0.00 0.00 0.00 0.00 0.00 0.01 0.01 0.01 0.01 0.01 0.00 0.01 0.00 0.00 0.00 0.00 0.00 0.00 0.00 0.00
0.05 0.06 0.05 0.06 0.05 0.03 0.02 0.01 0.01 0.00 0.00 0.00 0.00 0.00 0.00 0.00 0.00 0.00 0.01 0.01 0.01 0.01 0.00 0.00 0.00 0.00 0.00 0.01 0.01 0.01 0.01 0.01 0.00 0.00 0.01 0.00 0.00 0.00 0.00 0.00 0.00 0.00 0.00
0.09 0.09 0.09 0.07 0.06 0.04 0.03 0.03 0.03 0.01 0.01 0.00 0.00 0.00 0.01 0.01 0.01 0.01 0.01 0.02 0.02 0.01 0.01 0.01 0.00 0.00 0.00 0.00 0.00 0.00 0.00 0.00 0.00 0.00 0.01 0.01 0.00 0.00 0.00 0.00 0.00 0.00 0.00
0.11 0.10 0.09 0.07 0.06 0.05 0.04 0.05 0.05 0.03 0.02 0.02 0.02 0.02 0.01 0.02 0.01 0.02 0.03 0.03 0.02 0.02 0.02 0.02 0.02 0.01 0.01 0.00 0.00 0.00 0.00 0.00 0.00 0.00 0.00 0.01 0.01 0.01 0.01 0.00 0.00 0.00 0.00
MSLP
1015.80 1015.93 1016.01 1016.06 1016.13 1016.24 1016.38 1016.57 1016.77 1016.95 1017.09 1017.17 1017.21 1017.22 1017.24 1017.30 1017.44 1017.67 1017.96 1018.31 1018.66 1018.99 1019.26 1019.48 1019.65 1019.78 1019.91 1020.07 1020.27 1020.51 1020.80 1021.11 1021.42 1021.73 1022.00 1022.26 1022.48 1022.68 1022.86 1023.03 1023.19 1023.34 1023.49
1015.74 1015.89 1015.99 1016.07 1016.15 1016.26 1016.41 1016.58 1016.77 1016.95 1017.11 1017.22 1017.30 1017.35 1017.39 1017.47 1017.58 1017.76 1017.99 1018.26 1018.55 1018.83 1019.08 1019.30 1019.49 1019.66 1019.82 1020.00 1020.20 1020.43 1020.69 1020.97 1021.26 1021.56 1021.85 1022.12 1022.39 1022.64 1022.87 1023.08 1023.26 1023.42 1023.57
1015.74 1015.91 1016.04 1016.16 1016.28 1016.40 1016.54 1016.70 1016.87 1017.04 1017.20 1017.32 1017.42 1017.49 1017.55 1017.61 1017.70 1017.82 1017.97 1018.16 1018.37 1018.59 1018.82 1019.03 1019.24 1019.44 1019.64 1019.84 1020.05 1020.27 1020.50 1020.76 1021.02 1021.30 1021.60 1021.90 1022.21 1022.51 1022.79 1023.05 1023.27 1023.45 1023.60
1015.80 1015.99 1016.17 1016.34 1016.50 1016.64 1016.79 1016.93 1017.07 1017.21 1017.35 1017.46 1017.56 1017.64 1017.70 1017.75 1017.80 1017.86 1017.94 1018.05 1018.18 1018.33 1018.51 1018.70 1018.91 1019.13 1019.35 1019.57 1019.79 1020.00 1020.22 1020.45 1020.69 1020.96 1021.26 1021.58 1021.92 1022.27 1022.60 1022.91 1023.19 1023.41 1023.58
1015.90 1016.12 1016.35 1016.58 1016.79 1016.96 1017.11 1017.24 1017.35 1017.45 1017.55 1017.64 1017.73 1017.81 1017.86 1017.90 1017.92 1017.93 1017.94 1017.96 1018.00 1018.08 1018.20 1018.36 1018.55 1018.76 1018.99 1019.22 1019.44 1019.65 1019.85 1020.06 1020.28 1020.54 1020.83 1021.16 1021.53 1021.91 1022.30 1022.66 1022.98 1023.25 1023.47
1016.01 1016.26 1016.55 1016.84 1017.10 1017.32 1017.48 1017.59 1017.67 1017.73 1017.79 1017.86 1017.93 1018.00 1018.05 1018.08 1018.08 1018.05 1018.00 1017.94 1017.90 1017.90 1017.94 1018.04 1018.19 1018.38 1018.60 1018.82 1019.03 1019.23 1019.43 1019.62 1019.82 1020.06 1020.34 1020.67 1021.05 1021.45 1021.87 1022.27 1022.64 1022.97 1023.24
1016.09 1016.38 1016.73 1017.08 1017.40 1017.65 1017.83 1017.93 1017.99 1018.02 1018.04 1018.09 1018.15 1018.22 1018.28 1018.31 1018.30 1018.24 1018.15 1018.03 1017.91 1017.82 1017.78 1017.80 1017.89 1018.03 1018.22 1018.42 1018.61 1018.81 1018.98 1019.16 1019.35 1019.57 1019.84 1020.15 1020.52 1020.93 1021.35 1021.77 1022.17 1022.54 1022.85
1016.13 1016.45 1016.85 1017.26 1017.63 1017.93 1018.12 1018.23 1018.27 1018.28 1018.29 1018.32 1018.38 1018.46 1018.54 1018.59 1018.58 1018.52 1018.39 1018.22 1018.04 1017.87 1017.74 1017.68 1017.69 1017.77 1017.90 1018.06 1018.24 1018.41 1018.58 1018.75 1018.92 1019.12 1019.37 1019.66 1020.00 1020.38 1020.78 1021.20 1021.60 1021.98 1022.33
1016.11 1016.45 1016.89 1017.35 1017.76 1018.09 1018.32 1018.44 1018.48 1018.48 1018.49 1018.53 1018.60 1018.70 1018.81 1018.89 1018.91 1018.85 1018.71 1018.51 1018.27 1018.03 1017.82 1017.67 1017.61 1017.62 1017.69 1017.81 1017.95 1018.11 1018.27 1018.42 1018.58 1018.77 1018.98 1019.24 1019.53 1019.86 1020.22 1020.59 1020.97 1021.33 1021.68
1016.00 1016.37 1016.83 1017.33 1017.78 1018.14 1018.39 1018.52 1018.58 1018.60 1018.62 1018.68 1018.78 1018.91 1019.06 1019.17 1019.22 1019.19 1019.05 1018.83 1018.56 1018.27 1018.00 1017.79 1017.65 1017.59 1017.60 1017.67 1017.78 1017.92 1018.06 1018.20 1018.36 1018.52 1018.71 1018.92 1019.16 1019.43 1019.72 1020.03 1020.34 1020.65 1020.97
1015.84 1016.23 1016.71 1017.21 1017.68 1018.06 1018.33 1018.49 1018.57 1018.62 1018.67 1018.75 1018.89 1019.06 1019.24 1019.40 1019.48 1019.47 1019.36 1019.15 1018.87 1018.55 1018.24 1017.98 1017.78 1017.67 1017.63 1017.65 1017.72 1017.83 1017.95 1018.08 1018.23 1018.37 1018.53 1018.71 1018.89 1019.10 1019.31 1019.53 1019.77 1020.01 1020.27
1015.66 1016.05 1016.53 1017.04 1017.51 1017.89 1018.18 1018.36 1018.47 1018.54 1018.63 1018.75 1018.91 1019.12 1019.34 1019.52 1019.64 1019.66 1019.57 1019.39 1019.12 1018.81 1018.49 1018.21 1017.98 1017.82 1017.73 1017.71 1017.74 1017.81 1017.91 1018.02 1018.15 1018.28 1018.42 1018.56 1018.70 1018.85 1018.99 1019.13 1019.28 1019.44 1019.62
1015.48 1015.87 1016.34 1016.84 1017.29 1017.67 1017.96 1018.16 1018.29 1018.40 1018.51 1018.67 1018.86 1019.09 1019.32 1019.53 1019.67 1019.72 1019.67 1019.52 1019.29 1019.00 1018.71 1018.43 1018.18 1018.00 1017.88 1017.81 1017.79 1017.82 1017.88 1017.96 1018.06 1018.17 1018.30 1018.42 1018.53 1018.64 1018.73 1018.81 1018.89 1018.98 1019.08
1015.35 1015.73 1016.18 1016.65 1017.08 1017.44 1017.73 1017.93 1018.09 1018.22 1018.37 1018.54 1018.75 1018.98 1019.22 1019.43 1019.59 1019.66 1019.64 1019.53 1019.34 1019.11 1018.85 1018.60 1018.36 1018.17 1018.01 1017.90 1017.83 1017.80 1017.80 1017.84 1017.91 1018.00 1018.10 1018.21 1018.32 1018.41 1018.47 1018.52 1018.56 1018.59 1018.64
1015.27 1015.65 1016.07 1016.50 1016.90 1017.24 1017.51 1017.73 1017.90 1018.05 1018.21 1018.39 1018.60 1018.82 1019.04 1019.24 1019.39 1019.47 1019.48 1019.41 1019.29 1019.11 1018.91 1018.70 1018.49 1018.29 1018.11 1017.95 1017.82 1017.72 1017.65 1017.63 1017.65 1017.71 1017.79 1017.90 1018.01 1018.10 1018.17 1018.22 1018.24 1018.25 1018.26
1015.22 1015.59 1015.99 1016.39 1016.75 1017.07 1017.33 1017.55 1017.73 1017.89 1018.06 1018.24 1018.43 1018.63 1018.82 1018.99 1019.12 1019.20 1019.23 1019.20 1019.13 1019.02 1018.88 1018.72 1018.55 1018.35 1018.15 1017.95 1017.75 1017.57 1017.43 1017.33 1017.29 1017.30 1017.36 1017.46 1017.57 1017.69 1017.78 1017.84 1017.88 1017.90 1017.90
1015.17 1015.53 1015.90 1016.27 1016.61 1016.91 1017.17 1017.39 1017.57 1017.74 1017.91 1018.08 1018.25 1018.41 1018.56 1018.70 1018.80 1018.87 1018.91 1018.92 1018.90 1018.85 1018.78 1018.67 1018.54 1018.36 1018.14 1017.90 1017.64 1017.39 1017.16 1016.98 1016.87 1016.82 1016.85 1016.92 1017.04 1017.16 1017.27 1017.37 1017.43 1017.47 1017.49
1015.02 1015.38 1015.75 1016.10 1016.42 1016.72 1016.97 1017.19 1017.39 1017.57 1017.73 1017.88 1018.03 1018.16 1018.27 1018.36 1018.44 1018.50 1018.54 1018.58 1018.60 1018.61 1018.60 1018.56 1018.46 1018.31 1018.10 1017.83 1017.53 1017.21 1016.91 1016.65 1016.46 1016.35 1016.32 1016.36 1016.44 1016.56 1016.68 1016.78 1016.87 1016.93 1016.98
1014.73 1015.10 1015.46 1015.81 1016.13 1016.43 1016.69 1016.92 1017.12 1017.31 1017.47 1017.62 1017.74 1017.85 1017.93 1017.99 1018.04 1018.09 1018.13 1018.19 1018.25 1018.32 1018.36 1018.37 1018.33 1018.21 1018.01 1017.75 1017.42 1017.07 1016.72 1016.39 1016.14 1015.95 1015.85 1015.83 1015.86 1015.94 1016.03 1016.13 1016.21 1016.28 1016.35
1014.25 1014.63 1015.01 1015.36 1015.69 1015.99 1016.27 1016.51 1016.73 1016.92 1017.10 1017.24 1017.36 1017.45 1017.52 1017.56 1017.60 1017.64 1017.69 1017.77 1017.86 1017.96 1018.05 1018.11 1018.11 1018.04 1017.89 1017.65 1017.34 1016.98 1016.60 1016.24 1015.93 1015.68 1015.51 1015.41 1015.36 1015.36 1015.39 1015.44 1015.49 1015.54 1015.61
1013.60 1014.00 1014.39 1014.76 1015.10 1015.41 1015.69 1015.95 1016.18 1016.39 1016.58 1016.74 1016.86 1016.96 1017.03 1017.08 1017.11 1017.16 1017.22 1017.30 1017.41 1017.53 1017.65 1017.75 1017.81 1017.79 1017.68 1017.49 1017.22 1016.89 1016.53 1016.17 1015.83 1015.53 1015.29 1015.10 1014.97 1014.87 1014.80 1014.76 1014.75 1014.75 1014.80
1012.85 1013.27 1013.67 1014.05 1014.40 1014.71 1015.00 1015.27 1015.51 1015.74 1015.94 1016.12 1016.27 1016.39 1016.48 1016.54 1016.59 1016.64 1016.71 1016.79 1016.90 1017.03 1017.16 1017.28 1017.37 1017.39 1017.35 1017.22 1017.02 1016.76 1016.44 1016.11 1015.78 1015.46 1015.16 1014.90 1014.66 1014.46 1014.28 1014.14 1014.03 1013.97 1013.96
1012.12 1012.54 1012.95 1013.33 1013.67 1013.98 1014.26 1014.53 1014.78 1015.01 1015.23 1015.44 1015.62 1015.78 1015.90 1015.99 1016.06 1016.12 1016.18 1016.25 1016.33 1016.44 1016.55 1016.67 1016.76 1016.82 1016.82 1016.76 1016.64 1016.46 1016.23 1015.96 1015.66 1015.35 1015.03 1014.71 1014.40 1014.10 1013.82 1013.57 1013.36 1013.22 1013.15
1011.53 1011.95 1012.34 1012.70 1013.03 1013.32 1013.58 1013.83 1014.07 1014.31 1014.55 1014.78 1015.00 1015.19 1015.35 1015.47 1015.55 1015.61 1015.65 1015.68 1015.72 1015.77 1015.83 1015.90 1015.97 1016.03 1016.06 1016.06 1016.01 1015.92 1015.78 1015.59 1015.36 1015.09 1014.79 1014.45 1014.10 1013.74 1013.38 1013.05 1012.76 1012.54 1012.41
1011.21 1011.60 1011.96 1012.28 1012.57 1012.82 1013.05 1013.27 1013.50 1013.73 1013.97 1014.22 1014.46 1014.68 1014.86 1015.00 1015.08 1015.12 1015.12 1015.09 1015.05 1015.02 1015.00 1014.99 1015.00 1015.03 1015.06 1015.08 1015.09 1015.07 1015.02 1014.92 1014.78 1014.58 1014.33 1014.03 1013.68 1013.30 1012.91 1012.54 1012.20 1011.94 1011.76
1011.19 1011.53 1011.84 1012.11 1012.35 1012.55 1012.73 1012.92 1013.11 1013.32 1013.56 1013.81 1014.06 1014.28 1014.47 1014.60 1014.67 1014.66 1014.60 1014.49 1014.35 1014.20 1014.07 1013.96 1013.88 1013.84 1013.84 1013.86 1013.89 1013.93 1013.95 1013.94 1013.89 1013.78 1013.61 1013.37 1013.08 1012.74 1012.37 1012.00 1011.66 1011.38 1011.19
Thickness
5743 5741 5739 5738 5737 5736 5735 5734 5734 5733 5733 5733 5734 5734 5734 5733 5731 5728 5728 5728 5727 5726 5724 5723 5722 5721 5719 5718 5717 5716 5714 5714 5713 5712 5712 5712 5711 5711 5710 5710 5709 5709 5708
5741 5739 5738 5737 5736 5735 5734 5733 5733 5732 5733 5732 5732 5732 5732 5731 5729 5727 5727 5727 5726 5724 5723 5722 5721 5719 5718 5717 5716 5715 5714 5712 5711 5711 5710 5710 5710 5710 5709 5708 5708 5708 5707
5739 5738 5738 5737 5736 5735 5734 5733 5732 5732 5731 5731 5731 5731 5730 5729 5728 5728 5728 5727 5725 5723 5722 5721 5720 5719 5717 5716 5715 5714 5713 5711 5710 5709 5708 5708 5708 5708 5708 5707 5707 5706 5706
5738 5738 5737 5735 5735 5735 5733 5732 5731 5729 5729 5729 5729 5729 5729 5728 5727 5727 5728 5727 5725 5723 5721 5719 5718 5717 5716 5715 5714 5713 5711 5710 5709 5708 5707 5706 5706 5706 5706 5706 5706 5706 5705
5738 5737 5735 5733 5734 5734 5733 5732 5728 5728 5727 5727 5727 5727 5728 5727 5727 5727 5727 5726 5724 5722 5720 5718 5717 5716 5715 5714 5713 5712 5710 5709 5708 5707 5706 5705 5704 5704 5704 5704 5704 5705 5705
5737 5736 5734 5733 5733 5732 5730 5729 5727 5727 5726 5725 5727 5727 5727 5727 5727 5726 5725 5725 5723 5721 5720 5717 5715 5714 5713 5712 5711 5710 5709 5708 5707 5706 5705 5704 5703 5702 5702 5703 5703 5703 5704
5736 5735 5734 5732 5731 5730 5728 5728 5726 5726 5725 5726 5723 5722 5725 5727 5726 5724 5724 5723 5722 5720 5718 5717 5715 5714 5712 5711 5710 5709 5708 5707 5706 5705 5704 5703 5702 5702 5702 5702 5702 5702 5703
5736 5736 5733 5732 5730 5728 5727 5727 5725 5724 5725 5725 5721 5717 5715 5716 5720 5725 5722 5721 5720 5719 5718 5717 5715 5713 5712 5711 5709 5708 5707 5706 5705 5704 5703 5702 5702 5701 5701 5701 5701 5701 5702
5736 5734 5733 5732 5730 5729 5726 5726 5725 5723 5721 5723 5723 5717 5711 5707 5712 5717 5719 5718 5718 5716 5716 5715 5714 5713 5711 5710 5708 5706 5705 5704 5703 5702 5702 5701 5701 5701 5701 5701 5701 5701 5701
5735 5734 5733 5732 5730 5730 5727 5726 5725 5725 5722 5720 5721 5721 5718 5713 5707 5706 5712 5716 5716 5714 5714 5714 5713 5711 5710 5708 5706 5704 5703 5702 5701 5700 5700 5699 5699 5700 5700 5700 5700 5700 5700
5735 5734 5733 5732 5730 5729 5727 5726 5725 5724 5723 5720 5720 5719 5718 5716 5714 5707 5703 5707 5711 5713 5713 5712 5710 5709 5708 5706 5703 5701 5700 5699 5698 5698 5697 5697 5697 5698 5698 5698 5698 5699 5699
5735 5734 5733 5732 5730 5729 5727 5726 5724 5723 5721 5720 5719 5718 5716 5713 5710 5709 5704 5704 5705 5709 5712 5711 5709 5707 5706 5703 5701 5698 5697 5696 5694 5694 5694 5694 5694 5695 5695 5696 5696 5697 5697
5735 5735 5735 5732 5730 5728 5727 5725 5723 5722 5721 5719 5717 5716 5716 5715 5713 5710 5705 5703 5702 5706 5709 5709 5708 5706 5704 5701 5697 5695 5694 5692 5691 5690 5690 5690 5690 5691 5691 5692 5693 5693 5694
5740 5738 5735 5732 5730 5728 5727 5724 5723 5721 5720 5718 5717 5715 5713 5713 5712 5709 5705 5700 5696 5698 5702 5703 5706 5704 5701 5698 5694 5692 5690 5689 5688 5687 5686 5686 5686 5686 5687 5688 5689 5689 5690
5741 5738 5735 5732 5730 5728 5726 5723 5721 5720 5719 5716 5715 5713 5711 5711 5710 5708 5706 5701 5693 5687 5689 5696 5698 5700 5698 5695 5691 5689 5687 5686 5684 5684 5683 5683 5682 5682 5683 5683 5684 5685 5685
5740 5736 5734 5731 5729 5727 5724 5722 5720 5719 5716 5714 5712 5710 5709 5708 5707 5705 5703 5700 5696 5690 5686 5691 5693 5696 5694 5692 5689 5686 5685 5683 5682 5682 5681 5680 5679 5679 5679 5679 5679 5680 5680
5738 5735 5732 5730 5728 5725 5723 5719 5718 5717 5714 5712 5711 5709 5706 5704 5702 5701 5699 5697 5694 5691 5684 5687 5690 5692 5690 5688 5686 5683 5682 5681 5681 5681 5680 5679 5677 5676 5675 5675 5675 5675 5675
5735 5733 5730 5728 5726 5724 5721 5718 5714 5714 5712 5709 5707 5705 5703 5701 5698 5696 5693 5692 5690 5689 5684 5680 5682 5684 5685 5685 5683 5681 5680 5680 5680 5680 5679 5677 5675 5673 5672 5671 5670 5670 5671
5733 5731 5728 5725 5723 5722 5719 5716 5713 5711 5709 5707 5705 5702 5699 5697 5694 5692 5689 5687 5686 5685 5682 5679 5678 5680 5681 5681 5680 5678 5677 5676 5676 5677 5676 5675 5673 5670 5669 5668 5667 5667 5667
5730 5728 5726 5723 5721 5719 5716 5713 5710 5707 5705 5703 5702 5699 5697 5694 5691 5688 5685 5683 5681 5678 5677 5675 5673 5674 5675 5677 5675 5672 5670 5671 5671 5672 5672 5671 5669 5668 5666 5665 5665 5664 5663
5728 5725 5722 5720 5717 5715 5713 5710 5706 5704 5700 5698 5696 5695 5693 5691 5688 5685 5682 5680 5676 5673 5671 5669 5668 5668 5668 5668 5667 5667 5664 5665 5666 5666 5666 5666 5666 5665 5663 5662 5661 5660 5660
5725 5722 5719 5716 5713 5712 5710 5706 5702 5699 5696 5693 5690 5689 5688 5686 5684 5681 5678 5676 5672 5668 5665 5663 5661 5660 5661 5662 5662 5660 5657 5655 5654 5659 5658 5658 5659 5659 5659 5659 5659 5659 5658
5720 5717 5714 5711 5708 5705 5702 5699 5695 5692 5689 5688 5686 5683 5682 5684 5682 5678 5674 5671 5668 5665 5661 5657 5655 5655 5655 5655 5654 5652 5650 5648 5648 5650 5649 5649 5651 5651 5654 5654 5655 5656 5654
5715 5711 5708 5705 5702 5699 5695 5691 5688 5684 5682 5681 5679 5677 5676 5675 5674 5672 5670 5668 5665 5664 5660 5655 5653 5654 5653 5651 5648 5646 5644 5644 5645 5645 5643 5641 5645 5646 5649 5650 5650 5650 5649
5708 5704 5701 5698 5695 5692 5688 5684 5679 5676 5674 5673 5673 5672 5670 5669 5668 5664 5661 5659 5659 5659 5658 5657 5655 5653 5651 5648 5643 5639 5636 5634 5635 5638 5640 5637 5640 5641 5643 5644 5645 5645 5644
5699 5696 5693 5691 5688 5685 5682 5676 5670 5668 5666 5666 5666 5666 5664 5662 5661 5657 5653 5652 5650 5651 5650 5650 5648 5646 5644 5642 5639 5634 5630 5627 5628 5630 5634 5631 5632 5632 5632 5637 5638 5638 5637